This demonstration page uses our WeatherBlox Daily Observations layout. Learn more.

Left ArrowRight Arrow

47.50024, -111.30081

Hourly Observations for April 28, 2016

Temp ( °F °C ) Dew Point ( °F °C ) Humidity (%) Winds ( mph kmh ) Pressure ( in mb ) Visibility ( mi km ) Precip ( " mm )
12:17 am 00:17 Cloudy with Light Snow 34 1.1 32 0 92 92 NE 12 19 30.15 1021 5 8 0.00 0.03
12:25 am 00:25 Cloudy with Light Snow 33 0.6 32 0 96 96 NE 12 19 30.18 1022 5 8 0.01 0.25
12:42 am 00:42 Cloudy with Light Snow 34 1 32 0 93 93 NE 13 20 30.15 1021 5 8 0.00 0.00
12:53 am 00:53 Cloudy with Light Snow 33 0.6 32 0 96 96 NE 12 19 30.16 1021 4 6 0.01 0.25
1:53 am 01:53 Cloudy with Light Snow 33 0.6 31 -0.6 92 92 NE 13 20 30.16 1022 6 10 0.01 0.25
2:03 am 02:03 Cloudy with Light Snow 32 0 30 -1 93 93 NE 12 19 30.18 1022 4 6 0.00 0.00
2:15 am 02:15 Cloudy with Light Snow 32 0 31 -0.6 96 96 NE 12 19 30.18 1022 3 4 0.00 0.03
2:42 am 02:42 Cloudy with Light Snow 32 0 30 -1 93 93 NE 12 19 30.18 1022 3 5 0.00 0.00
2:53 am 02:53 Cloudy with Light Snow 32 0 31 -0.6 96 96 NE 10 17 30.17 1022 3 4 0.01 0.25
2:57 am 02:57 Cloudy with Light Snow 32 0 31 -0.6 96 96 NE 9 15 30.18 1022 2 3 0.00 0.03
3:11 am 03:11 Cloudy with Light Snow 32 0 31 -0.6 96 96 NE 10 17 30.18 1022 2 3 0.01 0.25
3:18 am 03:18 Cloudy with Light Snow 32 0 30 -1 93 93 NE 12 19 30.18 1022 3 4 0.00 0.00
3:38 am 03:38 Cloudy with Light Snow 32 0 30 -1 93 93 ENE 9 15 30.18 1022 4 6 0.00 0.00
3:53 am 03:53 Cloudy with Light Snow 32 0 31 -0.6 96 96 ENE 10 17 30.16 1021 5 8 0.02 0.51
4:53 am 04:53 Cloudy with Light Snow 32 0 31 -0.6 96 96 NE 13 20 30.17 1022 5 8 0.00 0.03
5:29 am 05:29 Cloudy with Light Snow 32 0 31 -0.6 96 96 NNE 10 17 30.18 1022 3 4 0.00 0.03
5:36 am 05:36 Cloudy with Light Snow 32 0 31 -0.6 96 96 NNE 12 19 30.18 1022 3 5 0.00 0.03
5:53 am 05:53 Cloudy with Light Snow 32 0 31 -0.6 96 96 NE 12 19 30.18 1022 2 3 0.00 0.03
6:38 am 06:38 Cloudy with Light Snow 32 0 30 -1 93 93 NE 9 15 30.21 1023 2 2 0.00 0.00
6:45 am 06:45 Cloudy with Light Snow 32 0 31 -0.6 96 96 NE 9 15 30.21 1023 1 2 0.02 0.51
6:53 am 06:53 Cloudy with Light Snow 32 0 31 -0.6 96 96 NE 12 19 30.18 1022 1 2 0.02 0.51
7:04 am 07:04 Cloudy with Light Snow 32 0 30 -1 93 93 ENE 8 13 30.21 1023 1 1 0.00 0.00
7:53 am 07:53 Cloudy with Light Snow 32 0 31 -0.6 96 96 NE 8 13 30.20 1023 1 1 0.02 0.51
8:13 am 08:13 Cloudy with Light Snow 32 0 31 -0.6 96 96 NE 7 11 30.21 1023 1 2 0.00 0.03
8:21 am 08:21 Cloudy with Light Snow 32 0 31 -0.6 96 96 NE 10 17 30.21 1023 1 1 0.00 0.03
8:34 am 08:34 Cloudy with Light Snow 32 0 30 -1 93 93 NE 9 15 30.21 1023 1 2 0.00 0.00
8:49 am 08:49 Cloudy with Light Snow 34 1 30 -1 87 87 NE 10 17 30.18 1022 3 4 0.01 0.25
8:53 am 08:53 Cloudy with Light Snow 33 0.6 32 0 96 96 NE 10 17 30.21 1023 3 4 0.01 0.25
9:08 am 09:08 Cloudy with Light Snow 34 1 32 0 93 93 NE 10 17 30.18 1022 4 6 0.00 0.00
9:17 am 09:17 Cloudy with Mist and Fog 34 1.1 32 0 92 92 NNE 9 15 30.18 1022 6 10 0.00 0.03
9:53 am 09:53 Cloudy 35 1.7 33 0.6 93 93 NE 12 19 30.20 1023 10 16 0.00 0.03
10:22 am 10:22 Cloudy 36 2 34 1 93 93 NE 12 19 30.18 1022 10 16 0.00 0.00
10:36 am 10:36 Cloudy 36 2 34 1 93 93 ENE 10 17 30.18 1022 10 16 0.00 0.00
10:53 am 10:53 Cloudy with Light Rain 36 2.2 33 0.6 89 89 NE 12 19 30.21 1023 10 16 0.00 0.03
11:13 am 11:13 Cloudy 37 2.8 34 1.1 89 89 ENE 9 15 30.18 1022 10 16 0.00 0.03
11:20 am 11:20 Cloudy 37 3 34 1 87 87 NE 13 20 30.21 1023 10 16 0.00 0.00
11:32 am 11:32 Cloudy with Light Rain 37 3 34 1 87 87 ENE 12 19 30.21 1023 9 14 0.00 0.00
11:53 am 11:53 Cloudy with Light Rain 36 2.2 34 1.1 93 93 ENE 8 13 30.21 1023 6 10 0.00 0.03
12:04 pm 12:04 Cloudy with Light Rain 36 2 34 1 93 93 E 5 7 30.18 1022 7 11 0.00 0.00
12:36 pm 12:36 Cloudy 38 3.3 33 0.6 83 83 ENE 17 28 30.15 1021 10 16 0.01 0.25
12:53 pm 12:53 Cloudy 38 3.3 33 0.6 83 83 E 15 24 30.19 1023 10 16 0.01 0.25
1:34 pm 13:34 Cloudy 39 4 34 1 81 81 ENE 17 28 30.15 1021 10 16 0.00 0.00
1:53 pm 13:53 Cloudy 40 4.4 33 0.6 77 77 ENE 14 22 30.18 1022 10 16 0.00 0.03
2:22 pm 14:22 Cloudy 39 4 36 2 87 87 ENE 14 22 30.15 1021 10 16 0.00 0.00
2:35 pm 14:35 Cloudy 42 5.6 35 1.7 76 76 NE 17 28 30.12 1020 10 16 0.00 0.00
2:53 pm 14:53 Cloudy with Light Rain 42 5.6 35 1.7 76 76 ENE 14 22 30.18 1022 10 16 0.00 0.03
3:10 pm 15:10 Cloudy with Light Rain 43 6 36 2 76 76 NE 16 26 30.12 1020 10 16 0.00 0.00
3:53 pm 15:53 Cloudy with Light Rain 42 5.6 34 1.1 73 73 ENE 17 28 30.17 1022 10 16 0.00 0.03
4:12 pm 16:12 Cloudy with Light Rain 43 6 36 2 76 76 E 17 28 30.09 1019 8 13 0.00 0.00
4:53 pm 16:53 Cloudy 42 5.6 34 1.1 73 73 E 14 22 30.16 1022 10 16 0.00 0.03
5:53 pm 17:53 Cloudy 42 5.6 33 0.6 71 71 E 15 24 30.16 1022 10 16 0.00 0.03
6:53 pm 18:53 Cloudy 41 5 32 0 70 70 ENE 10 17 30.15 1021 10 16 0.00 0.00
7:53 pm 19:53 Cloudy 40 4.4 32 0 73 73 E 8 13 30.15 1021 10 16 0.00 0.00
8:53 pm 20:53 Cloudy 39 3.9 32 0 76 76 ENE 8 13 30.15 1021 10 16 0.00 0.00
9:53 pm 21:53 Cloudy 39 3.9 33 0.6 79 79 NE 9 15 30.15 1021 10 16 0.00 0.00
10:53 pm 22:53 Cloudy 38 3.3 33 0.6 83 83 E 9 15 30.15 1021 10 16 0.00 0.00
11:53 pm 23:53 Cloudy 38 3.3 33 0.6 83 83 ESE 9 15 30.13 1020 10 16 0.00 0.00

Powered by AerisWeather